DAL1411 KLGA-KCHS

Flight info

Callsign DAL1411
Flight time 1h 30m
Altitude 34000
Route WHITE Q409 CRPLR DFENC Q109 JOHAR AMYLU AMYLU3
Aircraft A21N/M-SDE2E3FGHIRWXY/LB1

Departure

Time 2026-04-21 23:55
Airport LaGuardia Airport (KLGA)

Arrival

Time 2026-04-22 01:25
Airport Charleston International Airport (KCHS)
Time Latitude Longitude Altitude Speed Heading
2026-04-21 22:37 40.77200 -73.86300 25 ft 0 kts 157°
2026-04-21 23:10 40.77206 -73.86303 26 ft 4 kts 156°
2026-04-21 23:10 40.77225 -73.86321 26 ft 3 kts 130°
2026-04-21 23:10 40.77233 -73.86342 30 ft 4 kts 62°
2026-04-21 23:11 40.77216 -73.86364 27 ft 3 kts 42°
2026-04-21 23:11 40.77227 -73.86350 29 ft 4 kts 42°
2026-04-21 23:11 40.77231 -73.86346 30 ft 0 kts 42°
2026-04-21 23:47 40.77238 -73.86337 26 ft 2 kts 42°
2026-04-21 23:47 40.77253 -73.86319 25 ft 3 kts 42°
2026-04-21 23:47 40.77272 -73.86298 22 ft 8 kts 39°
2026-04-21 23:47 40.77319 -73.86265 17 ft 9 kts 12°
2026-04-21 23:48 40.77378 -73.86310 18 ft 12 kts 307°
2026-04-21 23:48 40.77429 -73.86410 18 ft 14 kts 302°
2026-04-21 23:48 40.77484 -73.86526 17 ft 16 kts 302°
2026-04-21 23:48 40.77545 -73.86658 17 ft 18 kts 302°
2026-04-21 23:49 40.77613 -73.86801 17 ft 19 kts 302°
2026-04-21 23:49 40.77686 -73.86952 18 ft 19 kts 303°
2026-04-21 23:49 40.77758 -73.87104 19 ft 13 kts 302°
2026-04-21 23:49 40.77811 -73.87215 19 ft 15 kts 302°
2026-04-21 23:50 40.77871 -73.87340 19 ft 17 kts 302°
2026-04-21 23:50 40.77914 -73.87430 21 ft 0 kts 302°
2026-04-21 23:52 40.77939 -73.87482 22 ft 20 kts 303°
2026-04-21 23:52 40.78016 -73.87642 20 ft 21 kts 302°
2026-04-21 23:52 40.78089 -73.87798 23 ft 15 kts 302°
2026-04-21 23:53 40.78125 -73.87848 24 ft 0 kts 339°
2026-04-21 23:54 40.78187 -73.87858 22 ft 15 kts 33°
2026-04-21 23:54 40.78179 -73.87747 21 ft 11 kts 123°
2026-04-21 23:54 40.78024 -73.87422 19 ft 80 kts 122°
2026-04-21 23:54 40.77599 -73.86527 73 ft 140 kts 127°
2026-04-21 23:55 40.77068 -73.85412 729 ft 147 kts 127°
2026-04-21 23:55 40.76395 -73.84392 1423 ft 151 kts 146°
2026-04-21 23:55 40.75389 -73.83916 1899 ft 160 kts 170°
2026-04-21 23:55 40.74244 -73.83576 2392 ft 178 kts 169°
2026-04-21 23:56 40.72981 -73.83176 2932 ft 195 kts 169°
2026-04-21 23:56 40.71604 -73.82765 3527 ft 210 kts 176°
2026-04-21 23:56 40.70118 -73.82840 4189 ft 219 kts 195°
2026-04-21 23:56 40.68624 -73.83258 5025 ft 226 kts 196°
2026-04-21 23:57 40.67099 -73.83833 5846 ft 230 kts 210°
2026-04-21 23:57 40.65739 -73.85008 6472 ft 241 kts 223°
2026-04-21 23:57 40.64395 -73.86419 7192 ft 250 kts 224°
2026-04-21 23:57 40.63018 -73.87853 8011 ft 254 kts 225°
2026-04-21 23:58 40.61526 -73.89210 8703 ft 272 kts 215°
2026-04-21 23:58 40.59754 -73.90315 9289 ft 289 kts 211°
2026-04-21 23:58 40.57890 -73.91389 10065 ft 296 kts 211°
2026-04-21 23:58 40.55952 -73.92519 10544 ft 314 kts 212°
2026-04-21 23:59 40.53890 -73.93739 10869 ft 336 kts 211°
2026-04-21 23:59 40.51693 -73.95043 11173 ft 356 kts 211°
2026-04-21 23:59 40.49368 -73.96422 11483 ft 375 kts 211°
2026-04-21 23:59 40.46928 -73.97867 11772 ft 394 kts 210°
2026-04-22 00:00 40.44388 -73.99371 12169 ft 405 kts 210°
2026-04-22 00:00 40.41802 -74.00903 12713 ft 410 kts 210°
2026-04-22 00:00 40.39185 -74.02455 13289 ft 414 kts 210°
2026-04-22 00:00 40.36547 -74.04014 13884 ft 418 kts 210°
2026-04-22 00:01 40.33890 -74.05583 14426 ft 421 kts 210°
2026-04-22 00:01 40.31233 -74.07156 14942 ft 424 kts 210°
2026-04-22 00:01 40.28533 -74.08756 15487 ft 428 kts 210°
2026-04-22 00:01 40.25800 -74.10362 16082 ft 431 kts 210°
2026-04-22 00:02 40.23048 -74.11983 16702 ft 435 kts 210°
2026-04-22 00:02 40.20280 -74.13613 17320 ft 438 kts 210°
2026-04-22 00:02 40.17481 -74.15266 17929 ft 442 kts 210°
2026-04-22 00:02 40.14667 -74.16927 18533 ft 446 kts 210°
2026-04-22 00:03 40.11829 -74.18597 19044 ft 450 kts 210°
2026-04-22 00:03 40.08958 -74.20278 19538 ft 453 kts 210°
2026-04-22 00:03 40.06074 -74.21969 20015 ft 456 kts 210°
2026-04-22 00:03 40.03165 -74.23675 20467 ft 460 kts 210°
2026-04-22 00:04 40.00312 -74.25551 20919 ft 457 kts 217°
2026-04-22 00:04 39.97705 -74.27892 21374 ft 456 kts 222°
2026-04-22 00:04 39.95140 -74.30355 21840 ft 459 kts 223°
2026-04-22 00:04 39.92566 -74.32837 22325 ft 462 kts 223°
2026-04-22 00:05 39.89967 -74.35330 22802 ft 465 kts 223°
2026-04-22 00:05 39.87356 -74.37825 23268 ft 468 kts 222°
2026-04-22 00:05 39.84711 -74.40338 23715 ft 472 kts 222°
2026-04-22 00:05 39.82073 -74.42906 24109 ft 472 kts 225°
2026-04-22 00:06 39.79727 -74.45781 24490 ft 469 kts 231°
2026-04-22 00:06 39.77454 -74.48810 24991 ft 468 kts 232°
2026-04-22 00:06 39.75185 -74.51835 25506 ft 466 kts 232°
2026-04-22 00:06 39.72920 -74.54845 26028 ft 465 kts 232°
2026-04-22 00:07 39.70660 -74.57837 26555 ft 464 kts 232°
2026-04-22 00:07 39.68401 -74.60824 27056 ft 462 kts 232°
2026-04-22 00:07 39.66146 -74.63802 27578 ft 461 kts 232°
2026-04-22 00:07 39.63895 -74.66773 28096 ft 460 kts 232°
2026-04-22 00:08 39.61648 -74.69736 28597 ft 459 kts 232°
2026-04-22 00:08 39.59416 -74.72682 29101 ft 458 kts 232°
2026-04-22 00:08 39.57190 -74.75616 29586 ft 457 kts 232°
2026-04-22 00:08 39.54960 -74.78546 30064 ft 456 kts 232°
2026-04-22 00:09 39.52735 -74.81467 30503 ft 454 kts 232°
2026-04-22 00:09 39.50514 -74.84380 30912 ft 453 kts 232°
2026-04-22 00:09 39.48331 -74.87242 31309 ft 451 kts 232°
2026-04-22 00:09 39.46104 -74.90167 31697 ft 450 kts 232°
2026-04-22 00:10 39.43912 -74.93040 32066 ft 448 kts 232°
2026-04-22 00:10 39.41748 -74.95871 32436 ft 447 kts 232°
2026-04-22 00:10 39.39564 -74.98723 32804 ft 445 kts 232°
2026-04-22 00:10 39.37382 -75.01566 33154 ft 444 kts 232°
2026-04-22 00:11 39.35209 -75.04396 33490 ft 443 kts 232°
2026-04-22 00:11 39.33041 -75.07217 33808 ft 442 kts 231°
2026-04-22 00:11 39.30879 -75.10029 34168 ft 440 kts 231°
2026-04-22 00:11 39.28656 -75.12745 34322 ft 441 kts 229°
2026-04-22 00:12 39.26387 -75.15411 34350 ft 441 kts 228°
2026-04-22 00:12 39.21840 -75.20729 34342 ft 441 kts 228°
2026-04-22 00:13 39.17287 -75.26048 34310 ft 441 kts 228°
2026-04-22 00:13 39.12738 -75.31348 34298 ft 441 kts 228°
2026-04-22 00:14 39.08193 -75.36635 34288 ft 441 kts 228°
2026-04-22 00:14 39.03509 -75.41764 34285 ft 448 kts 220°
2026-04-22 00:14 39.00739 -75.43662 34282 ft 457 kts 207°
2026-04-22 00:15 38.97653 -75.44768 34294 ft 466 kts 195°
2026-04-22 00:15 38.91208 -75.45656 34309 ft 468 kts 191°
2026-04-22 00:16 38.84723 -75.46484 34316 ft 468 kts 191°
2026-04-22 00:16 38.78241 -75.47370 34317 ft 468 kts 192°
2026-04-22 00:17 38.71752 -75.48265 34321 ft 468 kts 191°
2026-04-22 00:17 38.65266 -75.49148 34320 ft 469 kts 191°
2026-04-22 00:18 38.58807 -75.50022 34326 ft 469 kts 191°
2026-04-22 00:18 38.52309 -75.50903 34332 ft 469 kts 191°
2026-04-22 00:19 38.45809 -75.51784 34327 ft 469 kts 191°
2026-04-22 00:19 38.39298 -75.52663 34327 ft 471 kts 191°
2026-04-22 00:20 38.33005 -75.54511 34328 ft 457 kts 210°
2026-04-22 00:20 38.27682 -75.58691 34331 ft 448 kts 221°
2026-04-22 00:21 38.22610 -75.63212 34326 ft 448 kts 221°
2026-04-22 00:21 38.17411 -75.67637 34335 ft 452 kts 218°
2026-04-22 00:22 38.12083 -75.71888 34340 ft 452 kts 218°
2026-04-22 00:22 38.06755 -75.76157 34344 ft 452 kts 218°
2026-04-22 00:23 38.01431 -75.80429 34314 ft 453 kts 218°
2026-04-22 00:23 37.96083 -75.84710 34348 ft 454 kts 218°
2026-04-22 00:24 37.90770 -75.88951 34345 ft 453 kts 218°
2026-04-22 00:24 37.85433 -75.93206 34356 ft 453 kts 218°
2026-04-22 00:25 37.80098 -75.97456 34320 ft 453 kts 218°
2026-04-22 00:25 37.74750 -76.01707 34328 ft 454 kts 218°
2026-04-22 00:26 37.69404 -76.05946 34338 ft 454 kts 218°
2026-04-22 00:26 37.64056 -76.10182 34332 ft 454 kts 218°
2026-04-22 00:27 37.59610 -76.13699 34347 ft 454 kts 218°
2026-04-22 00:27 37.54254 -76.17928 34349 ft 455 kts 218°
2026-04-22 00:28 37.48878 -76.22164 34343 ft 456 kts 218°
2026-04-22 00:28 37.43498 -76.26397 34345 ft 456 kts 218°
2026-04-22 00:29 37.38122 -76.30619 34334 ft 456 kts 218°
2026-04-22 00:29 37.32737 -76.34842 34347 ft 456 kts 218°
2026-04-22 00:30 37.27340 -76.39065 34341 ft 456 kts 218°
2026-04-22 00:30 37.21950 -76.43278 34322 ft 457 kts 218°
2026-04-22 00:31 37.16583 -76.47465 34309 ft 457 kts 218°
2026-04-22 00:31 37.11171 -76.51678 34319 ft 456 kts 219°
2026-04-22 00:32 37.05794 -76.55858 34310 ft 455 kts 219°
2026-04-22 00:32 37.00407 -76.60039 34313 ft 455 kts 219°
2026-04-22 00:33 36.95030 -76.64206 34300 ft 455 kts 219°
2026-04-22 00:33 36.89637 -76.68379 34336 ft 456 kts 219°
2026-04-22 00:34 36.84234 -76.72551 34347 ft 456 kts 219°
2026-04-22 00:34 36.78865 -76.76691 34347 ft 456 kts 219°
2026-04-22 00:35 36.73458 -76.80851 34335 ft 457 kts 219°
2026-04-22 00:35 36.68039 -76.85016 34345 ft 457 kts 219°
2026-04-22 00:36 36.62619 -76.89172 34325 ft 457 kts 220°
2026-04-22 00:36 36.57228 -76.93298 34331 ft 457 kts 220°
2026-04-22 00:37 36.51802 -76.97449 34331 ft 458 kts 219°
2026-04-22 00:37 36.46371 -77.01596 34331 ft 458 kts 220°
2026-04-22 00:38 36.40933 -77.05737 34338 ft 458 kts 220°
2026-04-22 00:38 36.35561 -77.09821 34335 ft 451 kts 220°
2026-04-22 00:39 36.30162 -77.13931 34345 ft 458 kts 220°
2026-04-22 00:39 36.24719 -77.18055 34333 ft 458 kts 220°
2026-04-22 00:40 36.19317 -77.22139 34339 ft 458 kts 220°
2026-04-22 00:40 36.13883 -77.26244 34337 ft 456 kts 220°
2026-04-22 00:41 36.08505 -77.30297 34338 ft 447 kts 220°
2026-04-22 00:41 36.03146 -77.34347 34328 ft 455 kts 219°
2026-04-22 00:42 35.97729 -77.38417 34326 ft 455 kts 219°
2026-04-22 00:42 35.92314 -77.42483 34325 ft 455 kts 219°
2026-04-22 00:43 35.86891 -77.46550 34329 ft 455 kts 219°
2026-04-22 00:43 35.81514 -77.50581 34328 ft 445 kts 219°
2026-04-22 00:44 35.76201 -77.54558 34344 ft 454 kts 219°
2026-04-22 00:44 35.70783 -77.58592 34346 ft 455 kts 219°
2026-04-22 00:45 35.65376 -77.62605 34339 ft 453 kts 219°
2026-04-22 00:45 35.59983 -77.66612 34324 ft 453 kts 219°
2026-04-22 00:46 35.54618 -77.70591 34341 ft 445 kts 219°
2026-04-22 00:46 35.49301 -77.74535 34350 ft 451 kts 219°
2026-04-22 00:47 35.43915 -77.78528 34357 ft 452 kts 219°
2026-04-22 00:47 35.38560 -77.82483 34352 ft 452 kts 219°
2026-04-22 00:48 35.33174 -77.86457 34351 ft 452 kts 219°
2026-04-22 00:48 35.27804 -77.90418 34342 ft 446 kts 219°
2026-04-22 00:49 35.22491 -77.94324 34354 ft 450 kts 219°
2026-04-22 00:49 35.17105 -77.98278 34347 ft 451 kts 218°
2026-04-22 00:50 35.11718 -78.02225 34349 ft 451 kts 218°
2026-04-22 00:50 35.06332 -78.06170 34358 ft 451 kts 218°
2026-04-22 00:51 35.00962 -78.10094 34357 ft 446 kts 218°
2026-04-22 00:51 34.95662 -78.13964 34358 ft 448 kts 218°
2026-04-22 00:52 34.90296 -78.17876 34326 ft 450 kts 218°
2026-04-22 00:52 34.84911 -78.21788 34347 ft 449 kts 218°
2026-04-22 00:53 34.79577 -78.25659 34344 ft 449 kts 218°
2026-04-22 00:53 34.74216 -78.29549 34342 ft 446 kts 218°
2026-04-22 00:54 34.68919 -78.33386 34351 ft 446 kts 218°
2026-04-22 00:54 34.63546 -78.37281 34358 ft 451 kts 218°
2026-04-22 00:55 34.58166 -78.41152 33916 ft 449 kts 218°
2026-04-22 00:55 34.55481 -78.43090 33598 ft 450 kts 218°
2026-04-22 00:55 34.50081 -78.46986 33065 ft 452 kts 218°
2026-04-22 00:56 34.47373 -78.48937 32806 ft 453 kts 218°
2026-04-22 00:56 34.44654 -78.50887 32540 ft 454 kts 218°
2026-04-22 00:56 34.41968 -78.52819 32290 ft 455 kts 218°
2026-04-22 00:56 34.39245 -78.54777 32040 ft 456 kts 218°
2026-04-22 00:57 34.36514 -78.56734 31791 ft 457 kts 217°
2026-04-22 00:57 34.33796 -78.58731 31541 ft 455 kts 220°
2026-04-22 00:57 34.31351 -78.61099 31296 ft 447 kts 230°
2026-04-22 00:57 34.29128 -78.63732 31044 ft 446 kts 232°
2026-04-22 00:58 34.26942 -78.66392 30814 ft 447 kts 232°
2026-04-22 00:58 34.24744 -78.69057 30560 ft 448 kts 231°
2026-04-22 00:58 34.22537 -78.71716 30299 ft 448 kts 231°
2026-04-22 00:58 34.20323 -78.74372 29997 ft 448 kts 231°
2026-04-22 00:59 34.18108 -78.77022 29706 ft 448 kts 231°
2026-04-22 00:59 34.15894 -78.79673 29430 ft 449 kts 231°
2026-04-22 00:59 34.13669 -78.82336 29157 ft 450 kts 231°
2026-04-22 00:59 34.11438 -78.84999 28888 ft 451 kts 231°
2026-04-22 01:00 34.09229 -78.87636 28621 ft 453 kts 231°
2026-04-22 01:00 34.06985 -78.90314 28357 ft 454 kts 231°
2026-04-22 01:00 34.04739 -78.92992 28089 ft 455 kts 231°
2026-04-22 01:00 34.02482 -78.95682 27836 ft 456 kts 231°
2026-04-22 01:01 34.00221 -78.98371 27583 ft 457 kts 230°
2026-04-22 01:01 33.97957 -79.01069 27312 ft 458 kts 230°
2026-04-22 01:01 33.95694 -79.03762 26802 ft 455 kts 230°
2026-04-22 01:01 33.93448 -79.06427 25859 ft 451 kts 230°
2026-04-22 01:02 33.91228 -79.09059 24946 ft 443 kts 230°
2026-04-22 01:02 33.89050 -79.11640 24136 ft 435 kts 230°
2026-04-22 01:02 33.86858 -79.14240 23346 ft 447 kts 230°
2026-04-22 01:02 33.84649 -79.16855 22655 ft 445 kts 229°
2026-04-22 01:03 33.82410 -79.19502 22204 ft 461 kts 229°
2026-04-22 01:03 33.80114 -79.22216 21790 ft 462 kts 229°
2026-04-22 01:03 33.77652 -79.24657 21197 ft 459 kts 219°
2026-04-22 01:03 33.74987 -79.26712 20554 ft 452 kts 217°
2026-04-22 01:04 33.72330 -79.28702 19895 ft 445 kts 216°
2026-04-22 01:04 33.69713 -79.30661 19260 ft 440 kts 216°
2026-04-22 01:04 33.67161 -79.32573 18609 ft 435 kts 216°
2026-04-22 01:04 33.64610 -79.34490 17820 ft 431 kts 216°
2026-04-22 01:05 33.62072 -79.36404 16911 ft 430 kts 216°
2026-04-22 01:05 33.59548 -79.38312 16276 ft 427 kts 216°
2026-04-22 01:05 33.57046 -79.40203 15722 ft 423 kts 216°
2026-04-22 01:05 33.54571 -79.42069 15198 ft 418 kts 215°
2026-04-22 01:06 33.52122 -79.43911 14725 ft 413 kts 215°
2026-04-22 01:06 33.49709 -79.45724 14307 ft 407 kts 214°
2026-04-22 01:06 33.47306 -79.47530 13873 ft 407 kts 214°
2026-04-22 01:06 33.44921 -79.49323 13391 ft 404 kts 214°
2026-04-22 01:07 33.42548 -79.51108 12824 ft 400 kts 214°
2026-04-22 01:07 33.40205 -79.52869 12305 ft 397 kts 214°
2026-04-22 01:07 33.37886 -79.54608 11841 ft 385 kts 214°
2026-04-22 01:07 33.35667 -79.56264 11505 ft 366 kts 214°
2026-04-22 01:08 33.33562 -79.57836 11240 ft 348 kts 214°
2026-04-22 01:08 33.31573 -79.59340 10998 ft 330 kts 214°
2026-04-22 01:08 33.29677 -79.60779 10714 ft 315 kts 214°
2026-04-22 01:08 33.27868 -79.62150 10446 ft 302 kts 214°
2026-04-22 01:09 33.26111 -79.63484 10184 ft 294 kts 214°
2026-04-22 01:09 33.24397 -79.64782 9840 ft 289 kts 214°
2026-04-22 01:09 33.22711 -79.66058 9472 ft 285 kts 214°
2026-04-22 01:09 33.21131 -79.67455 9122 ft 281 kts 228°
2026-04-22 01:10 33.20033 -79.69345 8779 ft 277 kts 245°
2026-04-22 01:10 33.19176 -79.71401 8438 ft 276 kts 246°
2026-04-22 01:10 33.18333 -79.73457 8091 ft 276 kts 246°
2026-04-22 01:10 33.17490 -79.75488 7757 ft 276 kts 246°
2026-04-22 01:11 33.16620 -79.77566 7411 ft 276 kts 246°
2026-04-22 01:11 33.15767 -79.79587 7074 ft 277 kts 245°
2026-04-22 01:11 33.14895 -79.81644 6726 ft 278 kts 245°
2026-04-22 01:11 33.14018 -79.83707 6356 ft 278 kts 245°
2026-04-22 01:12 33.13143 -79.85760 5996 ft 278 kts 244°
2026-04-22 01:12 33.12267 -79.87814 5636 ft 278 kts 244°
2026-04-22 01:12 33.11391 -79.89863 5296 ft 277 kts 244°
2026-04-22 01:12 33.10814 -79.91214 5082 ft 275 kts 244°
2026-04-22 01:13 33.09952 -79.93230 4735 ft 270 kts 244°
2026-04-22 01:13 33.09104 -79.95214 4373 ft 267 kts 244°
2026-04-22 01:13 33.08260 -79.97184 4021 ft 267 kts 244°
2026-04-22 01:13 33.07418 -79.99149 3696 ft 266 kts 244°
2026-04-22 01:14 33.06581 -80.01099 3368 ft 262 kts 245°
2026-04-22 01:14 33.05791 -80.03041 2997 ft 258 kts 252°
2026-04-22 01:14 33.05601 -80.05144 2635 ft 257 kts 278°
2026-04-22 01:14 33.06223 -80.07130 2280 ft 260 kts 304°
2026-04-22 01:15 33.07457 -80.08679 2025 ft 254 kts 320°
2026-04-22 01:15 33.08837 -80.09898 1974 ft 239 kts 326°
2026-04-22 01:15 33.10181 -80.10965 1973 ft 229 kts 327°
2026-04-22 01:15 33.11517 -80.12006 1989 ft 228 kts 327°
2026-04-22 01:16 33.12843 -80.13044 2004 ft 229 kts 327°
2026-04-22 01:16 33.14159 -80.14077 2011 ft 229 kts 327°
2026-04-22 01:16 33.15434 -80.15219 2009 ft 229 kts 314°
2026-04-22 01:16 33.16294 -80.16806 2011 ft 229 kts 289°
2026-04-22 01:17 33.16532 -80.18661 2005 ft 227 kts 264°
2026-04-22 01:17 33.16142 -80.20457 1989 ft 224 kts 241°
2026-04-22 01:17 33.15215 -80.21918 1988 ft 221 kts 219°
2026-04-22 01:17 33.13927 -80.22800 2007 ft 201 kts 193°
2026-04-22 01:18 33.12690 -80.22609 1972 ft 169 kts 147°
2026-04-22 01:18 33.11922 -80.21688 1921 ft 149 kts 130°
2026-04-22 01:18 33.11255 -80.20764 1630 ft 147 kts 134°
2026-04-22 01:18 33.10538 -80.19917 1568 ft 146 kts 137°
2026-04-22 01:19 33.09798 -80.19157 1576 ft 131 kts 141°
2026-04-22 01:19 33.09085 -80.18496 1579 ft 129 kts 143°
2026-04-22 01:19 33.08359 -80.17863 1581 ft 130 kts 144°
2026-04-22 01:19 33.07621 -80.17246 1585 ft 129 kts 146°
2026-04-22 01:20 33.06869 -80.16655 1590 ft 130 kts 147°
2026-04-22 01:20 33.06108 -80.16069 1595 ft 130 kts 146°
2026-04-22 01:20 33.05342 -80.15484 1598 ft 131 kts 147°
2026-04-22 01:20 33.04575 -80.14899 1599 ft 131 kts 147°
2026-04-22 01:21 33.03808 -80.14314 1600 ft 131 kts 147°
2026-04-22 01:21 33.03045 -80.13733 1598 ft 130 kts 147°
2026-04-22 01:21 33.02278 -80.13150 1595 ft 131 kts 147°
2026-04-22 01:21 33.01512 -80.12566 1600 ft 130 kts 146°
2026-04-22 01:22 33.00749 -80.11986 1597 ft 130 kts 147°
2026-04-22 01:22 32.99983 -80.11404 1594 ft 130 kts 147°
2026-04-22 01:22 32.99221 -80.10824 1599 ft 130 kts 147°
2026-04-22 01:22 32.98458 -80.10243 1599 ft 130 kts 147°
2026-04-22 01:23 32.97696 -80.09664 1537 ft 130 kts 147°
2026-04-22 01:23 32.96937 -80.09086 1386 ft 129 kts 147°
2026-04-22 01:23 32.96191 -80.08519 1222 ft 129 kts 146°
2026-04-22 01:23 32.95440 -80.07947 1051 ft 127 kts 146°
2026-04-22 01:24 32.94699 -80.07383 875 ft 127 kts 146°
2026-04-22 01:24 32.93949 -80.06813 701 ft 128 kts 146°
2026-04-22 01:24 32.93193 -80.06239 534 ft 129 kts 146°
2026-04-22 01:24 32.92438 -80.05656 356 ft 129 kts 146°
2026-04-22 01:25 32.91680 -80.05080 160 ft 129 kts 148°
2026-04-22 01:25 32.90915 -80.04515 61 ft 125 kts 146°
2026-04-22 01:25 32.90264 -80.04023 46 ft 85 kts 149°
2026-04-22 01:25 32.89920 -80.03766 45 ft 43 kts 148°
2026-04-22 01:26 32.89677 -80.03586 42 ft 31 kts 168°
2026-04-22 01:26 32.89480 -80.03589 46 ft 24 kts 181°
2026-04-22 01:26 32.89329 -80.03592 46 ft 16 kts 180°
2026-04-22 01:26 32.89228 -80.03592 46 ft 15 kts 180°
2026-04-22 01:27 32.89115 -80.03595 46 ft 17 kts 181°
2026-04-22 01:27 32.88988 -80.03602 46 ft 19 kts 188°
2026-04-22 01:27 32.88948 -80.03610 46 ft 0 kts 189°
2026-04-22 01:27 32.88936 -80.03612 46 ft 5 kts 189°
2026-04-22 01:28 32.88845 -80.03629 46 ft 20 kts 188°
2026-04-22 01:28 32.88744 -80.03595 44 ft 16 kts 117°
2026-04-22 01:28 32.88695 -80.03466 45 ft 18 kts 133°
2026-04-22 01:28 32.88601 -80.03448 46 ft 9 kts 180°
2026-04-22 01:29 32.88563 -80.03479 46 ft 7 kts 245°
2026-04-22 01:29 32.88551 -80.03527 46 ft 4 kts 258°
2026-04-22 01:29 32.88549 -80.03538 45 ft 0 kts 256°